星链-3267 (STARLINK-3267 )

导读

STARLINK-3267是美国SpaceX公司星链星座的一颗卫星,于2021年12月18日发射升空。作为星链第一代V1.5批次卫星,它重约295公斤,设计寿命约5年,运行在340-614公里近地轨道,轨道倾角53°,主要为全球提供高速卫星互联网接入服务,支撑星链全球宽带覆盖组网,目前处于现役状态,逐步推进星座部署扩张。

Basic Information
目录编号:
50197
目录名称:
STARLINK-3267
国际标识:
2021-125AT
轨道中心:
EARTH
卫星名称:
星链-3267
卫星全名:
星链-3267 (STARLINK-3267 )
卫星状态:
在轨 (已飞行1642 天)
发射日期:
2021-12-18 UTC
国别 :
美国 (US)
星等 :
--
Orbit Information
数据来源 国际轨道数据 AOE轨道数据
星历时间 2026-06-17T14:02:04+0800
14小时前
查看轨道信息
2026-06-17T05:00:00+0800
23小时前
查看轨道信息
半长轴 6917.907km 6917.905km
偏心率 0.0001452 0.0002052
轨道倾角 53.160° 53.158°
近地点辐角 77.656° 75.423°
升交点赤经 152.075° 153.771°
平近点角 282.459° 38.859°
近地点 538.765km 538.348km
远地点 540.775km 541.188km
周期 95.438分钟 95.438分钟
每日圈数 15.088316 15.088321
Detailed Information
固有亮度:
5
最大亮度:
2.5
卫星平台:
Starlink v1.5
覆盖范围:
全球
运营商:
太空探索技术公司
运营商所在国:
美国
制造商(研发单位):
太空探索技术公司
制造商所在国:
美国
使用方式:
暂无
Satellite Introduction
星链(Starlink)计划是由太空探索技术公司(SpaceX)提出的一个巨型低轨卫星互联网星座项目,计划在2019年至2024年间在太空搭建由约1.2万颗卫星组成的“星链”网络,其中1584颗将部署在地球上空550千米处的近地轨道,并从2020年开始工作。该卫星仍在工作。
2D Orbit Map
3D Orbit Map
Orbit Altitude Analysis Chart
Orbit Inclination Analysis Chart
Orbit Comprehensive Analysis Chart
View Comprehensive Chart